Flag for Canada Weather past 2 weeks in Rainy River, Ontario, Canada

Now
13 °F

Clear.


Feels Like: 1 °F
Forecast: 8 / 27 °F
Wind: 9 mph from West

Location: Baudette International Airport

Current Time: Mar 6, 2015 at 6:02:28 AM

Latest Report: Mar 6, 2015 at 4:53 AM


Visibility: 10 mi

Pressure: 29.93 "Hg

Humidity: 77%

Dew point: 7 °F

Location of Rainy RiverLocation

Historic Weather in Rainy River — Graph

°F

Rainy River temperature yesterday

Maximum temperature yesterday: 18 °F (at 4:53 PM)
Minimum temperature yesterday: -19 °F (at 4:53 AM)
Average temperature yesterday: 2 °F

Past Weeks' High & Low Weather Summary

 TemperatureHumidityPressure
High25 °F (Feb 24, 1:53 AM)88% (Mar 2, 2:53 AM)30.77 "Hg (Mar 2, 2:53 AM)
Low-29 °F (Feb 22, 5:53 AM)33% (Feb 27, 4:53 PM)29.56 "Hg (Feb 23, 10:02 PM)
Average1 °F67%30.19 "Hg
* Reported Feb 19 4:53 AM — Mar 6 4:53 AM, Rainy River, Weather by CustomWeather, © 2015

Note: Actual official high and low records may vary slightly from our data, if they occured in-between our weather recording intervals... More about our weather records

Advertising

Rainy River weather history for previous 24 hours

 ConditionsComfort  
Time TempWeatherWind HumidityBarometerVisibility
4:53 AM
Fri, Mar 6
13 °FClear.9 mph77%29.93 "Hg10 mi
3:53 AM15 °FClear.9 mph70%29.93 "Hg10 mi
2:53 AM11 °FClear.7 mph73%29.94 "Hg10 mi
1:53 AM14 °FPassing clouds.9 mph67%29.95 "Hg10 mi
12:53 AM14 °FOvercast.9 mph67%29.96 "Hg10 mi
11:53 PM
Thu, Mar 5
14 °FMostly cloudy.15 mph64%29.99 "Hg10 mi
10:53 PM13 °FOvercast.17 mph61%30.03 "Hg10 mi
9:53 PM12 °FPassing clouds.21 mph58%30.06 "Hg10 mi
8:53 PM13 °FClear.16 mph56%30.11 "Hg10 mi
7:53 PM14 °FClear.17 mph56%30.14 "Hg10 mi
6:53 PM15 °FClear.15 mph51%30.18 "Hg10 mi
5:53 PM16 °FSunny.14 mph47%30.19 "Hg10 mi
4:53 PM18 °FSunny.15 mph43%30.20 "Hg10 mi
3:53 PM17 °FSunny.13 mph42%30.22 "Hg10 mi
2:53 PM17 °FSunny.10 mph41%30.25 "Hg10 mi
1:53 PM15 °FSunny.14 mph44%30.28 "Hg10 mi
12:53 PM12 °FSunny.15 mph44%30.32 "Hg10 mi
11:53 AM8 °FSunny.10 mph49%30.35 "Hg10 mi
10:53 AM3 °FSunny.7 mph57%30.37 "Hg10 mi
9:53 AM-2 °FSunny.9 mph65%30.39 "Hg10 mi
8:53 AMN/ASunny.6 mphN/A30.40 "Hg10 mi
7:53 AM-16 °FSunny.5 mph78%30.39 "Hg10 mi
6:53 AM-18 °FSunny.5 mph73%30.39 "Hg10 mi
Weather by CustomWeather, © 2015

See weather overviewHow to use our weather pages